| time (UTC) | temp C | wind direction | speed KPH | gust KPH | rain 1hr cm | rain 24hr cm | rain mn cm | humidity % | barometer mb |
| 20260502130347 | 11 | 29 | 4.8 | 11.3 | 0.00 | 0.00 | 0.00 | 93 | 1020.8 |
| 20260502123329 | 11 | 38 | 1.6 | 3.2 | 0.00 | 0.00 | 0.00 | 96 | 1020.6 |
| 20260502122826 | 10 | 45 | 3.2 | 3.2 | 0.00 | 0.00 | 0.00 | 96 | 1020.5 |
| 20260502122322 | 10 | 79 | 0.0 | 1.6 | 0.00 | 0.00 | 0.00 | 96 | 1020.6 |
| 20260502121821 | 10 | 7 | 1.6 | 3.2 | 0.00 | 0.00 | 0.00 | 97 | 1020.6 |
| 20260502121318 | 10 | 69 | 1.6 | 6.4 | 0.00 | 0.00 | 0.00 | 97 | 1020.5 |
| 20260502120814 | 10 | 4 | 4.8 | 6.4 | 0.00 | 0.00 | 0.00 | 97 | 1020.3 |
| 20260502120311 | 10 | 350 | 1.6 | 4.8 | 0.00 | 0.00 | 0.00 | 97 | 1020.4 |
| 20260502115809 | 10 | 68 | 1.6 | 3.2 | 0.00 | 0.00 | 0.00 | 97 | 1020.2 |
| 20260502115306 | 10 | 74 | 0.0 | 4.8 | 0.00 | 0.00 | 0.00 | 97 | 1020.0 |
| 20260502114802 | 10 | 71 | 1.6 | 4.8 | 0.00 | 0.00 | 0.00 | 97 | 1019.9 |
| 20260502114258 | 10 | 43 | 0.0 | 1.6 | 0.00 | 0.00 | 0.00 | 97 | 1020.0 |
| 20260502113755 | 10 | 63 | 1.6 | 3.2 | 0.00 | 0.00 | 0.00 | 97 | 1020.0 |
| 20260502113253 | 10 | 77 | 1.6 | 1.6 | 0.00 | 0.00 | 0.00 | 97 | 1020.0 |
| 20260502112751 | 10 | 85 | 0.0 | 1.6 | 0.00 | 0.00 | 0.00 | 97 | 1020.1 |
| 20260502112249 | 10 | 68 | 1.6 | 1.6 | 0.00 | 0.00 | 0.00 | 97 | 1019.8 |
| 20260502111746 | 10 | 94 | 0.0 | 0.0 | 0.00 | 0.00 | 0.00 | 96 | 1019.8 |
| 20260502111243 | 10 | 94 | 0.0 | 1.6 | 0.00 | 0.00 | 0.00 | 96 | 1019.9 |
| 20260502110740 | 10 | 97 | 0.0 | 0.0 | 0.00 | 0.00 | 0.00 | 96 | 1019.8 |
| 20260502110238 | 10 | 110 | 0.0 | 0.0 | 0.00 | 0.00 | 0.00 | 96 | 1019.6 |
| 20260502105736 | 10 | 109 | 0.0 | 0.0 | 0.00 | 0.00 | 0.00 | 96 | 1019.5 |
| 20260502105232 | 10 | 110 | 0.0 | 0.0 | 0.00 | 0.00 | 0.00 | 96 | 1019.4 |
| 20260502104730 | 10 | 125 | 0.0 | 0.0 | 0.00 | 0.00 | 0.00 | 96 | 1019.3 |
| 20260502104227 | 10 | 103 | 0.0 | 0.0 | 0.00 | 0.00 | 0.00 | 96 | 1019.3 |
| 20260502103725 | 10 | 99 | 0.0 | 1.6 | 0.00 | 0.00 | 0.00 | 96 | 1018.9 |
| 20260502103222 | 10 | 80 | 3.2 | 4.8 | 0.00 | 0.00 | 0.00 | 96 | 1018.9 |
| 20260502102719 | 10 | 53 | 1.6 | 1.6 | 0.00 | 0.00 | 0.00 | 96 | 1018.9 |
| 20260502102216 | 10 | 96 | 0.0 | 1.6 | 0.00 | 0.00 | 0.00 | 96 | 1018.7 |
| 20260502101714 | 10 | 21 | 1.6 | 3.2 | 0.00 | 0.00 | 0.00 | 96 | 1018.8 |
| 20260502101212 | 10 | 85 | 0.0 | 1.6 | 0.00 | 0.00 | 0.00 | 96 | 1018.6 |
| 20260502100709 | 10 | 29 | 3.2 | 4.8 | 0.00 | 0.00 | 0.00 | 96 | 1018.4 |
| 20260502100208 | 10 | 103 | 0.0 | 1.6 | 0.00 | 0.00 | 0.00 | 96 | 1018.5 |
| 20260502091142 | 10 | 358 | 1.6 | 3.2 | 0.00 | 0.00 | 0.00 | 95 | 1017.7 |
| 20260502090639 | 10 | 89 | 1.6 | 3.2 | 0.00 | 0.00 | 0.00 | 94 | 1017.6 |
| 20260502090136 | 10 | 97 | 0.0 | 4.8 | 0.00 | 0.00 | 0.00 | 94 | 1017.5 |
| 20260502080104 | 11 | 17 | 1.6 | 6.4 | 0.00 | 0.00 | 0.00 | 95 | 1017.4 |
| 20260502071037 | 11 | 42 | 1.6 | 6.4 | 0.00 | 0.00 | 0.00 | 94 | 1017.3 |
| 20260502070535 | 11 | 30 | 3.2 | 4.8 | 0.00 | 0.00 | 0.00 | 94 | 1017.1 |
| 20260502070033 | 11 | 40 | 3.2 | 11.3 | 0.00 | 0.00 | 0.00 | 94 | 1017.3 |
| 20260502065531 | 11 | 38 | 3.2 | 6.4 | 0.00 | 0.00 | 0.00 | 94 | 1017.4 |
| 20260502065029 | 11 | 60 | 1.6 | 6.4 | 0.00 | 0.00 | 0.00 | 94 | 1017.3 |
| 20260502064527 | 11 | 41 | 6.4 | 9.7 | 0.00 | 0.00 | 0.00 | 93 | 1017.2 |
| 20260502064024 | 11 | 40 | 8.0 | 9.7 | 0.00 | 0.00 | 0.00 | 93 | 1017.2 |
| 20260502063522 | 11 | 22 | 4.8 | 4.8 | 0.00 | 0.00 | 0.00 | 93 | 1017.3 |
| 20260502063019 | 11 | 19 | 3.2 | 9.7 | 0.00 | 0.00 | 0.00 | 93 | 1017.4 |
| 20260502062516 | 11 | 37 | 6.4 | 11.3 | 0.00 | 0.00 | 0.00 | 93 | 1017.5 |
| 20260502062015 | 11 | 30 | 3.2 | 6.4 | 0.00 | 0.00 | 0.00 | 92 | 1017.6 |
| 20260502061512 | 11 | 31 | 3.2 | 6.4 | 0.00 | 0.00 | 0.00 | 92 | 1017.6 |
| 20260502061009 | 11 | 47 | 4.8 | 9.7 | 0.00 | 0.00 | 0.00 | 92 | 1017.5 |
| 20260502060503 | 12 | 27 | 6.4 | 9.7 | 0.00 | 0.00 | 0.00 | 92 | 1017.4 |
| 20260502060000 | 12 | 33 | 4.8 | 6.4 | 0.00 | 0.00 | 0.00 | 91 | 1017.5 |
| 20260502055458 | 12 | 5 | 4.8 | 9.7 | 0.00 | 0.00 | 0.00 | 91 | 1017.7 |
| 20260502054957 | 12 | 344 | 6.4 | 14.5 | 0.00 | 0.00 | 0.00 | 91 | 1017.4 |
| 20260502054455 | 12 | 13 | 8.0 | 12.9 | 0.00 | 0.00 | 0.00 | 91 | 1017.4 |
| 20260502053952 | 12 | 354 | 8.0 | 11.3 | 0.00 | 0.00 | 0.00 | 91 | 1017.5 |
| 20260502053449 | 12 | 16 | 8.0 | 20.9 | 0.00 | 0.00 | 0.00 | 91 | 1017.6 |
| 20260502052947 | 12 | 33 | 4.8 | 6.4 | 0.00 | 0.00 | 0.00 | 91 | 1017.8 |
| 20260502052445 | 12 | 24 | 3.2 | 14.5 | 0.00 | 0.00 | 0.00 | 91 | 1017.6 |
| 20260502051943 | 12 | 24 | 6.4 | 14.5 | 0.00 | 0.00 | 0.00 | 92 | 1017.5 |
| 20260502051441 | 12 | 37 | 4.8 | 16.1 | 0.00 | 0.00 | 0.00 | 92 | 1017.6 |
| 20260502050938 | 12 | 75 | 6.4 | 11.3 | 0.00 | 0.00 | 0.00 | 93 | 1017.5 |
| 20260502050434 | 12 | 2 | 3.2 | 12.9 | 0.00 | 0.00 | 0.00 | 93 | 1017.6 |
| 20260502045931 | 12 | 11 | 3.2 | 9.7 | 0.00 | 9.45 | 9.45 | 93 | 1017.4 |
| 20260502045428 | 12 | 3 | 8.0 | 12.9 | 0.00 | 9.45 | 9.45 | 92 | 1017.2 |
| 20260502044925 | 12 | 35 | 6.4 | 14.5 | 0.00 | 9.45 | 9.45 | 92 | 1017.1 |
| 20260502044420 | 12 | 31 | 6.4 | 12.9 | 0.00 | 9.45 | 9.45 | 92 | 1017.2 |
| 20260502043918 | 12 | 56 | 3.2 | 6.4 | 0.00 | 9.45 | 9.45 | 92 | 1017.0 |
| 20260502043416 | 12 | 34 | 8.0 | 12.9 | 0.00 | 9.45 | 9.45 | 92 | 1017.3 |
| 20260502042915 | 12 | 57 | 3.2 | 11.3 | 0.00 | 9.45 | 9.45 | 92 | 1017.2 |
| 20260502042413 | 12 | 39 | 9.7 | 11.3 | 0.00 | 9.45 | 9.45 | 92 | 1017.1 |
| 20260502041909 | 12 | 22 | 4.8 | 17.7 | 0.00 | 9.45 | 9.45 | 92 | 1016.9 |
| 20260502041407 | 12 | 37 | 8.0 | 17.7 | 0.00 | 9.45 | 9.45 | 92 | 1017.0 |
| 20260502040904 | 12 | 349 | 11.3 | 14.5 | 0.00 | 9.45 | 9.45 | 93 | 1016.9 |
| 20260502040401 | 12 | 40 | 6.4 | 16.1 | 0.00 | 9.45 | 9.45 | 93 | 1016.9 |
| 20260502035857 | 12 | 7 | 4.8 | 6.4 | 0.00 | 9.45 | 9.45 | 93 | 1016.9 |
| 20260502035353 | 12 | 22 | 3.2 | 9.7 | 0.00 | 9.45 | 9.45 | 94 | 1016.9 |
| 20260502034851 | 12 | 47 | 6.4 | 11.3 | 0.00 | 9.45 | 9.45 | 94 | 1016.9 |
| 20260502034349 | 12 | 27 | 9.7 | 12.9 | 0.00 | 9.45 | 9.45 | 94 | 1016.7 |
| 20260502033848 | 12 | 26 | 9.7 | 11.3 | 0.00 | 9.45 | 9.45 | 94 | 1016.8 |
| 20260502033345 | 12 | 7 | 8.0 | 14.5 | 0.00 | 9.45 | 9.45 | 95 | 1016.9 |
| 20260502032841 | 12 | 38 | 6.4 | 11.3 | 0.00 | 9.45 | 9.45 | 95 | 1016.7 |
| 20260502032337 | 12 | 32 | 6.4 | 11.3 | 0.00 | 9.45 | 9.45 | 95 | 1016.7 |
| 20260502031835 | 12 | 38 | 4.8 | 11.3 | 0.00 | 9.45 | 9.45 | 95 | 1016.4 |
| 20260502031333 | 12 | 58 | 3.2 | 6.4 | 0.00 | 9.45 | 9.45 | 95 | 1016.5 |
| 20260502030831 | 12 | 39 | 6.4 | 9.7 | 0.00 | 9.45 | 9.45 | 95 | 1016.4 |
| 20260502030329 | 12 | 333 | 3.2 | 9.7 | 0.00 | 9.45 | 9.45 | 95 | 1016.6 |
| 20260502025826 | 12 | 56 | 8.0 | 16.1 | 0.00 | 9.45 | 9.45 | 95 | 1016.2 |
| 20260502025324 | 12 | 21 | 3.2 | 11.3 | 0.00 | 9.45 | 9.45 | 95 | 1016.1 |
| 20260502024822 | 12 | 41 | 6.4 | 14.5 | 0.00 | 9.45 | 9.45 | 95 | 1016.1 |
| 20260502024319 | 12 | 328 | 9.7 | 14.5 | 0.00 | 9.45 | 9.45 | 95 | 1016.1 |
| 20260502023817 | 12 | 347 | 8.0 | 14.5 | 0.00 | 9.45 | 9.45 | 96 | 1016.2 |
| 20260502023315 | 13 | 351 | 3.2 | 12.9 | 0.00 | 9.45 | 9.45 | 96 | 1016.0 |
| 20260502022812 | 13 | 34 | 8.0 | 12.9 | 0.00 | 9.45 | 9.45 | 96 | 1016.0 |
| 20260502022308 | 13 | 18 | 9.7 | 12.9 | 0.00 | 9.45 | 9.45 | 96 | 1016.1 |
| 20260502021805 | 13 | 52 | 6.4 | 11.3 | 0.00 | 9.45 | 9.45 | 96 | 1015.7 |
| 20260502021302 | 13 | 0 | 9.7 | 14.5 | 0.00 | 9.45 | 9.45 | 96 | 1015.5 |
| 20260502020759 | 13 | 6 | 3.2 | 14.5 | 0.00 | 9.45 | 9.45 | 96 | 1015.4 |
| 20260502020257 | 13 | 39 | 6.4 | 11.3 | 0.00 | 9.45 | 9.45 | 96 | 1015.3 |
| 20260502015754 | 13 | 28 | 8.0 | 12.9 | 0.00 | 9.45 | 9.45 | 96 | 1015.0 |
| 20260502015250 | 13 | 41 | 8.0 | 12.9 | 0.00 | 9.45 | 9.45 | 96 | 1014.9 |
| 20260502014748 | 13 | 7 | 9.7 | 12.9 | 0.00 | 9.45 | 9.45 | 96 | 1014.7 |
| 20260502014245 | 13 | 42 | 9.7 | 14.5 | 0.00 | 9.45 | 9.45 | 96 | 1014.3 |
| 20260502013741 | 13 | 48 | 3.2 | 9.7 | 0.00 | 9.45 | 9.45 | 97 | 1014.2 |
| 20260502013237 | 14 | 351 | 4.8 | 12.9 | 0.00 | 9.45 | 9.45 | 96 | 1014.0 |
| 20260502012734 | 14 | 63 | 3.2 | 9.7 | 0.00 | 9.45 | 9.45 | 96 | 1013.7 |
| 20260502012232 | 14 | 28 | 6.4 | 9.7 | 0.00 | 9.45 | 9.45 | 97 | 1013.7 |
| 20260502011729 | 14 | 30 | 6.4 | 14.5 | 0.00 | 9.45 | 9.45 | 97 | 1013.8 |
| 20260502011224 | 14 | 31 | 8.0 | 11.3 | 0.00 | 9.45 | 9.45 | 97 | 1013.6 |
| 20260502010723 | 14 | 65 | 1.6 | 11.3 | 0.00 | 9.45 | 9.45 | 97 | 1014.0 |
| 20260502010218 | 14 | 36 | 6.4 | 16.1 | 0.00 | 9.45 | 9.45 | 97 | 1013.3 |
| 20260502005716 | 14 | 65 | 4.8 | 11.3 | 0.00 | 9.45 | 9.45 | 97 | 1013.4 |
| 20260502005213 | 14 | 339 | 3.2 | 12.9 | 0.00 | 9.45 | 9.45 | 97 | 1013.7 |
| 20260502004709 | 14 | 55 | 6.4 | 16.1 | 0.00 | 9.45 | 9.45 | 97 | 1013.6 |
| 20260502004206 | 14 | 34 | 4.8 | 12.9 | 0.00 | 9.45 | 9.45 | 97 | 1013.5 |
| 20260502003704 | 14 | 9 | 9.7 | 14.5 | 0.00 | 9.45 | 9.45 | 97 | 1013.8 |
| 20260502003201 | 14 | 24 | 9.7 | 14.5 | 0.00 | 9.45 | 9.45 | 97 | 1014.0 |
| 20260502002656 | 14 | 44 | 4.8 | 16.1 | 0.18 | 9.45 | 9.45 | 97 | 1013.9 |
| 20260502002155 | 14 | 17 | 9.7 | 14.5 | 0.18 | 9.45 | 9.45 | 97 | 1013.9 |
| 20260502001652 | 14 | 23 | 8.0 | 12.9 | 0.13 | 9.42 | 9.42 | 97 | 1013.7 |
| 20260502001149 | 15 | 19 | 9.7 | 11.3 | 0.30 | 9.42 | 9.42 | 97 | 1013.5 |
| 20260502000647 | 15 | 58 | 3.2 | 12.9 | 0.18 | 9.40 | 9.40 | 97 | 1013.9 |
| 20260502000144 | 15 | 43 | 3.2 | 4.8 | 0.13 | 9.37 | 9.37 | 97 | 1014.4 |
| 20260501235640 | 15 | 66 | 4.8 | 6.4 | 0.30 | 9.37 | 9.37 | 97 | 1014.4 |
| 20260501235136 | 15 | 359 | 6.4 | 11.3 | 0.18 | 9.35 | 9.35 | 97 | 1014.3 |
| 20260501234632 | 15 | 18 | 4.8 | 11.3 | 0.18 | 9.32 | 9.32 | 97 | 1013.8 |
| 20260501234129 | 15 | 76 | 8.0 | 17.7 | 0.18 | 9.32 | 9.32 | 97 | 1013.5 |
| 20260501233627 | 15 | 359 | 4.8 | 12.9 | 0.00 | 9.30 | 9.30 | 97 | 1013.2 |
| 20260501233125 | 15 | 342 | 6.4 | 16.1 | 0.13 | 9.30 | 9.30 | 97 | 1013.5 |
| 20260501232620 | 15 | 37 | 9.7 | 16.1 | 0.13 | 9.30 | 9.30 | 97 | 1013.5 |
| 20260501232118 | 15 | 47 | 6.4 | 12.9 | 0.18 | 9.27 | 9.27 | 97 | 1013.1 |
| 20260501231615 | 15 | 12 | 4.8 | 9.7 | 0.30 | 9.27 | 9.27 | 97 | 1013.3 |
| 20260501231114 | 15 | 20 | 8.0 | 16.1 | 0.30 | 9.25 | 9.25 | 97 | 1013.0 |
| 20260501230612 | 15 | 14 | 9.7 | 12.9 | 0.18 | 9.22 | 9.22 | 97 | 1012.9 |
| 20260501230110 | 15 | 38 | 4.8 | 6.4 | 0.00 | 9.19 | 9.19 | 97 | 1013.4 |
| 20260501225607 | 15 | 351 | 6.4 | 9.7 | 0.00 | 9.19 | 9.19 | 97 | 1013.2 |
| 20260501225103 | 15 | 18 | 4.8 | 6.4 | 0.00 | 9.19 | 9.19 | 97 | 1012.8 |
| 20260501224601 | 15 | 26 | 3.2 | 6.4 | 0.13 | 9.19 | 9.19 | 97 | 1012.8 |
| 20260501224057 | 15 | 185 | 4.8 | 14.5 | 0.13 | 9.19 | 9.19 | 97 | 1013.0 |
| 20260501223554 | 15 | 333 | 1.6 | 9.7 | 0.18 | 9.17 | 9.17 | 97 | 1012.4 |
| 20260501223050 | 15 | 358 | 3.2 | 14.5 | 0.30 | 9.17 | 9.17 | 97 | 1011.9 |
| 20260501222546 | 15 | 23 | 6.4 | 14.5 | 0.89 | 9.14 | 9.14 | 96 | 1012.0 |
| 20260501222043 | 15 | 50 | 3.2 | 16.1 | 1.98 | 9.09 | 9.09 | 96 | 1012.1 |
| 20260501221540 | 15 | 359 | 6.4 | 12.9 | 1.98 | 8.97 | 8.97 | 96 | 1012.2 |
| 20260501221038 | 15 | 20 | 3.2 | 6.4 | 0.48 | 8.71 | 8.71 | 96 | 1012.2 |
| 20260501220535 | 15 | 55 | 3.2 | 6.4 | 0.00 | 8.64 | 8.64 | 96 | 1011.4 |
| 20260501220032 | 15 | 64 | 8.0 | 11.3 | 0.00 | 8.64 | 8.64 | 96 | 1010.4 |
| 20260501215528 | 15 | 66 | 6.4 | 11.3 | 0.13 | 8.64 | 8.64 | 96 | 1010.1 |
| 20260501215023 | 15 | 22 | 8.0 | 12.9 | 0.00 | 8.61 | 8.61 | 96 | 1009.9 |
| 20260501214519 | 15 | 27 | 11.3 | 16.1 | 0.00 | 8.61 | 8.61 | 96 | 1010.2 |
| 20260501214015 | 15 | 27 | 6.4 | 11.3 | 0.00 | 8.61 | 8.61 | 96 | 1010.5 |
| 20260501213512 | 15 | 30 | 8.0 | 11.3 | 0.00 | 8.61 | 8.61 | 96 | 1010.3 |
| 20260501213009 | 15 | 32 | 8.0 | 12.9 | 0.00 | 8.61 | 8.61 | 96 | 1010.4 |
| 20260501212504 | 16 | 46 | 11.3 | 14.5 | 0.00 | 8.61 | 8.61 | 96 | 1010.6 |
| 20260501212002 | 16 | 17 | 8.0 | 11.3 | 0.00 | 8.61 | 8.61 | 96 | 1010.4 |
| 20260501211458 | 16 | 33 | 9.7 | 14.5 | 0.00 | 8.61 | 8.61 | 96 | 1010.1 |
| 20260501210956 | 16 | 22 | 6.4 | 12.9 | 0.00 | 8.61 | 8.61 | 97 | 1010.3 |
| 20260501210452 | 16 | 42 | 8.0 | 20.9 | 0.00 | 8.61 | 8.61 | 97 | 1010.2 |
| 20260501205949 | 15 | 30 | 6.4 | 12.9 | 0.00 | 8.61 | 8.61 | 97 | 1010.1 |
| 20260501205446 | 15 | 73 | 6.4 | 11.3 | 0.00 | 8.61 | 8.61 | 97 | 1010.2 |
| 20260501204943 | 15 | 42 | 9.7 | 14.5 | 0.00 | 8.61 | 8.61 | 97 | 1010.4 |
| 20260501204439 | 15 | 22 | 9.7 | 11.3 | 0.00 | 8.61 | 8.61 | 97 | 1010.8 |
| 20260501203935 | 15 | 0 | 6.4 | 17.7 | 0.00 | 8.61 | 8.61 | 97 | 1011.0 |
| 20260501203432 | 16 | 4 | 4.8 | 12.9 | 0.00 | 8.61 | 8.61 | 97 | 1011.2 |
| 20260501202930 | 16 | 5 | 9.7 | 12.9 | 0.00 | 8.61 | 8.61 | 97 | 1010.9 |
| 20260501202426 | 16 | 349 | 4.8 | 6.4 | 0.18 | 8.61 | 8.61 | 98 | 1011.0 |
| 20260501201923 | 16 | 359 | 6.4 | 9.7 | 0.18 | 8.61 | 8.61 | 97 | 1011.4 |
| 20260501201420 | 16 | 24 | 4.8 | 12.9 | 0.13 | 8.59 | 8.59 | 98 | 1010.5 |
| 20260501200917 | 16 | 30 | 6.4 | 11.3 | 0.43 | 8.59 | 8.59 | 98 | 1010.6 |
| 20260501200414 | 16 | 13 | 4.8 | 6.4 | 1.27 | 8.56 | 8.56 | 98 | 1011.7 |
| 20260501195912 | 16 | 329 | 1.6 | 3.2 | 2.59 | 8.48 | 8.48 | 98 | 1011.7 |
| 20260501195408 | 16 | 13 | 4.8 | 16.1 | 2.59 | 8.33 | 8.33 | 97 | 1011.2 |
| 20260501194903 | 16 | 296 | 1.6 | 3.2 | 1.02 | 8.03 | 8.03 | 98 | 1012.9 |
| 20260501194400 | 16 | 330 | 3.2 | 6.4 | 0.61 | 7.90 | 7.90 | 97 | 1011.7 |
| 20260501193855 | 16 | 337 | 8.0 | 11.3 | 0.30 | 7.82 | 7.82 | 98 | 1011.0 |
| 20260501193354 | 16 | 8 | 8.0 | 11.3 | 0.18 | 7.80 | 7.80 | 98 | 1011.2 |
| 20260501192852 | 16 | 171 | 4.8 | 6.4 | 0.30 | 7.77 | 7.77 | 98 | 1010.7 |
| 20260501192349 | 16 | 57 | 6.4 | 11.3 | 0.36 | 7.75 | 7.75 | 98 | 1010.3 |
| 20260501191845 | 16 | 6 | 6.4 | 12.9 | 0.48 | 7.72 | 7.72 | 98 | 1010.2 |
| 20260501191343 | 16 | 54 | 8.0 | 12.9 | 0.18 | 7.67 | 7.67 | 98 | 1010.5 |
| 20260501190839 | 16 | 51 | 4.8 | 6.4 | 0.13 | 7.65 | 7.65 | 98 | 1011.0 |
| 20260501190336 | 16 | 337 | 4.8 | 6.4 | 0.13 | 7.65 | 7.65 | 98 | 1011.0 |
| 20260501185831 | 16 | 35 | 6.4 | 11.3 | 0.18 | 7.62 | 7.62 | 98 | 1009.6 |
| 20260501185327 | 16 | 19 | 4.8 | 16.1 | 0.48 | 7.62 | 7.62 | 97 | 1009.0 |
| 20260501184823 | 16 | 50 | 6.4 | 9.7 | 0.30 | 7.57 | 7.57 | 97 | 1009.8 |
| 20260501184319 | 16 | 24 | 6.4 | 9.7 | 0.00 | 7.52 | 7.52 | 98 | 1010.3 |
| 20260501183815 | 16 | 14 | 9.7 | 12.9 | 0.00 | 7.52 | 7.52 | 97 | 1010.3 |
| 20260501183312 | 16 | 49 | 3.2 | 11.3 | 0.00 | 7.52 | 7.52 | 98 | 1010.1 |
| 20260501182808 | 16 | 108 | 1.6 | 3.2 | 0.00 | 7.52 | 7.52 | 98 | 1010.7 |
| 20260501182306 | 16 | 38 | 3.2 | 11.3 | 0.00 | 7.52 | 7.52 | 98 | 1010.4 |
| 20260501181802 | 16 | 46 | 6.4 | 11.3 | 0.00 | 7.52 | 7.52 | 97 | 1010.0 |
| 20260501181259 | 16 | 47 | 6.4 | 11.3 | 0.00 | 7.52 | 7.52 | 98 | 1010.1 |
| 20260501180757 | 16 | 44 | 3.2 | 16.1 | 0.00 | 7.52 | 7.52 | 98 | 1009.9 |
| 20260501180253 | 16 | 38 | 6.4 | 11.3 | 0.00 | 7.52 | 7.52 | 98 | 1009.9 |
| 20260501175750 | 16 | 50 | 6.4 | 14.5 | 0.00 | 7.52 | 7.52 | 98 | 1010.0 |
| 20260501175247 | 16 | 46 | 9.7 | 16.1 | 0.00 | 7.52 | 7.52 | 98 | 1010.2 |
| 20260501174743 | 16 | 25 | 6.4 | 11.3 | 0.00 | 7.52 | 7.52 | 98 | 1010.1 |
| 20260501174241 | 16 | 357 | 4.8 | 6.4 | 0.00 | 7.52 | 7.52 | 98 | 1010.5 |
| 20260501173738 | 16 | 46 | 6.4 | 11.3 | 0.00 | 7.52 | 7.52 | 98 | 1010.6 |
| 20260501173235 | 17 | 49 | 8.0 | 14.5 | 0.00 | 7.52 | 7.52 | 98 | 1010.6 |
| 20260501172731 | 17 | 77 | 4.8 | 6.4 | 0.00 | 7.52 | 7.52 | 98 | 1010.4 |
| 20260501172226 | 17 | 18 | 6.4 | 9.7 | 0.00 | 7.52 | 7.52 | 99 | 1010.2 |
| 20260501171723 | 16 | 64 | 9.7 | 14.5 | 0.00 | 7.52 | 7.52 | 99 | 1009.5 |
| 20260501171220 | 16 | 36 | 9.7 | 17.7 | 0.18 | 7.52 | 7.52 | 99 | 1009.5 |
| 20260501170717 | 16 | 42 | 17.7 | 22.5 | 0.18 | 7.52 | 7.52 | 98 | 1009.1 |
| 20260501170213 | 16 | 12 | 11.3 | 22.5 | 0.13 | 7.49 | 7.49 | 98 | 1009.5 |
| 20260501165711 | 16 | 40 | 12.9 | 16.1 | 0.30 | 7.49 | 7.49 | 98 | 1010.2 |
| 20260501165208 | 16 | 60 | 6.4 | 14.5 | 0.18 | 7.47 | 7.47 | 98 | 1010.6 |
| 20260501164706 | 16 | 79 | 6.4 | 16.1 | 0.18 | 7.44 | 7.44 | 98 | 1010.0 |
| 20260501164203 | 16 | 42 | 3.2 | 16.1 | 0.13 | 7.42 | 7.42 | 98 | 1012.0 |
| 20260501163659 | 16 | 24 | 4.8 | 6.4 | 0.30 | 7.42 | 7.42 | 98 | 1013.2 |
| 20260501163156 | 16 | 347 | 3.2 | 9.7 | 0.30 | 7.39 | 7.39 | 98 | 1012.8 |
| 20260501162652 | 16 | 42 | 8.0 | 11.3 | 0.30 | 7.37 | 7.37 | 98 | 1012.4 |
| 20260501162149 | 16 | 54 | 3.2 | 16.1 | 0.18 | 7.34 | 7.34 | 98 | 1012.4 |
| 20260501161646 | 16 | 76 | 4.8 | 12.9 | 0.00 | 7.32 | 7.32 | 98 | 1012.1 |
| 20260501161143 | 16 | 42 | 3.2 | 6.4 | 0.13 | 7.32 | 7.32 | 98 | 1013.4 |
| 20260501160639 | 16 | 14 | 6.4 | 20.9 | 0.30 | 7.32 | 7.32 | 98 | 1012.5 |
| 20260501160137 | 16 | 22 | 9.7 | 12.9 | 0.18 | 7.29 | 7.29 | 99 | 1012.1 |
| 20260501155633 | 16 | 50 | 3.2 | 6.4 | 0.13 | 7.26 | 7.26 | 99 | 1012.7 |
| 20260501155131 | 16 | 79 | 3.2 | 4.8 | 0.30 | 7.26 | 7.26 | 98 | 1013.0 |
| 20260501154628 | 16 | 93 | 1.6 | 4.8 | 0.48 | 7.24 | 7.24 | 98 | 1013.0 |
| 20260501154125 | 16 | 53 | 3.2 | 6.4 | 0.48 | 7.19 | 7.19 | 99 | 1012.6 |
| 20260501153623 | 16 | 16 | 3.2 | 4.8 | 0.89 | 7.16 | 7.16 | 98 | 1013.4 |
| 20260501153119 | 16 | 20 | 6.4 | 17.7 | 1.19 | 7.11 | 7.11 | 98 | 1012.2 |
| 20260501152615 | 16 | 83 | 6.4 | 11.3 | 1.07 | 7.01 | 7.01 | 98 | 1012.3 |
| 20260501152112 | 16 | 16 | 3.2 | 4.8 | 0.97 | 6.91 | 6.91 | 98 | 1013.9 |
| 20260501151609 | 16 | 353 | 1.6 | 9.7 | 0.79 | 6.81 | 6.81 | 98 | 1014.0 |
| 20260501151106 | 16 | 61 | 1.6 | 9.7 | 0.61 | 6.73 | 6.73 | 98 | 1013.6 |
| 20260501150602 | 16 | 47 | 4.8 | 11.3 | 0.61 | 6.65 | 6.65 | 98 | 1013.2 |
| 20260501150059 | 16 | 63 | 3.2 | 14.5 | 0.89 | 6.60 | 6.60 | 98 | 1013.4 |
| 20260501145554 | 16 | 336 | 4.8 | 6.4 | 1.50 | 6.55 | 6.55 | 98 | 1013.0 |
| 20260501145053 | 16 | 48 | 3.2 | 9.7 | 1.68 | 6.45 | 6.45 | 98 | 1012.6 |